Weather History for VTBD - October, 2011

Change the Weather History Date:

Wednesday, October 26, 2011

  Actual Average Record
Temperature  
Mean Temperature 86 °F -  
Max Temperature 91 °F 88 °F 96 °F (2012)
Min Temperature 80 °F 74 °F 71 °F (1996)
Cooling Degree Days 20    
Growing Degree Days 36 (Base 50)    
Moisture  
Dew Point 74 °F    
Average Humidity 68    
Maximum Humidity 84    
Minimum Humidity 47    
Precipitation  
Precipitation 0.00 in 0.07 in - ()
Sea Level Pressure  
Sea Level Pressure 29.83 in    
Wind  
Wind Speed 4 mph ()    
Max Wind Speed 10 mph    
Max Gust Speed -    
Visibility 6.1 miles    
Events      
Averages and records for this station are not official NWS values.
T = Trace of Precipitation, MM = Missing Value Source: Averaged Metar Reports

Daily Weather History Graph

Daily Weather History Graph

Search for Another Location

Airport or City:

Trip Planner

Search our weather history database for the weather conditions in past years. The results will help you decide how hot, cold, wet, or windy it might be!

Date:

Astronomy

Oct. 26, 2011 Rise Set
Actual Time 6:10 AM ICT 5:52 PM ICT
Civil Twilight 5:48 AM ICT 6:14 PM ICT
Nautical Twilight 5:23 AM ICT 6:39 PM ICT
Astronomical Twilight 4:58 AM ICT 7:04 PM ICT
Moon 5:17 AM ICT (10/26) 5:18 PM ICT (10/26)
Length of Visible Light 12h 25m
Length of Day
11h 42m
Waning Crescent, 1% of the Moon is Illuminated
Oct 26
Waning Crescent
Oct 27
New
Nov 2
First Quarter
Nov 11
Full
Nov 18
Last Quarter

Hourly Weather History & Observations

Time (ICT) Temp. Heat Index Dew Point Humidity Pressure Visibility Wind Dir Wind Speed Gust Speed Precip Events Conditions
12:00 AM 82.4 °F 89.5 °F 75.2 °F 79% 29.83 in 6.2 mi NE 3.5 mph - N/A   Mostly Cloudy
12:30 AM 82.4 °F 89.5 °F 75.2 °F 79% 29.83 in 6.2 mi NNE 3.5 mph - N/A   Scattered Clouds
1:00 AM 83 °F - 75 °F 71% 29.83 in 6 mi NNW 3.5 mph - -   Scattered Clouds
1:00 AM 82.4 °F 89.5 °F 75.2 °F 79% 29.80 in 6.2 mi NNW 3.5 mph - N/A   Scattered Clouds
1:30 AM 82.4 °F 89.5 °F 75.2 °F 79% 29.80 in 6.2 mi NE 3.5 mph - N/A   Scattered Clouds
2:00 AM 82.4 °F 89.5 °F 75.2 °F 79% 29.80 in 6.2 mi NE 3.5 mph - N/A   Scattered Clouds
2:30 AM 82.4 °F 89.5 °F 75.2 °F 79% 29.80 in 6.2 mi NW 3.5 mph - N/A   Scattered Clouds
3:00 AM 82.4 °F 89.5 °F 75.2 °F 79% 29.80 in 6.2 mi NW 4.6 mph - N/A   Scattered Clouds
3:30 AM 82.4 °F 89.5 °F 75.2 °F 79% 29.80 in 6.2 mi NNW 3.5 mph - N/A   Scattered Clouds
4:00 AM 82.4 °F 89.5 °F 75.2 °F 79% 29.80 in 6.2 mi NW 3.5 mph - N/A   Scattered Clouds
4:30 AM 82.4 °F 89.5 °F 75.2 °F 79% 29.80 in 6.2 mi NW 4.6 mph - N/A   Scattered Clouds
5:00 AM 80.6 °F 86.2 °F 75.2 °F 84% 29.80 in 6.2 mi NNE 6.9 mph - N/A   Scattered Clouds
5:30 AM 80.6 °F 86.2 °F 75.2 °F 84% 29.80 in 6.2 mi NNE 4.6 mph - N/A   Scattered Clouds
6:00 AM 80.6 °F 86.2 °F 75.2 °F 84% 29.80 in 6.2 mi NNE 4.6 mph - N/A   Scattered Clouds
6:30 AM 80.6 °F 86.2 °F 75.2 °F 84% 29.83 in 5.6 mi NE 4.6 mph - N/A   Unknown
7:00 AM 82 °F - 76 °F 76% 29.85 in 6 mi ENE 3.5 mph - -   Mist
7:00 AM 82.4 °F 89.5 °F 75.2 °F 79% 29.83 in 5.6 mi ENE 3.5 mph - N/A   Unknown
7:30 AM 82.4 °F 89.5 °F 75.2 °F 79% 29.86 in 5.6 mi NNE 4.6 mph - N/A   Unknown
8:00 AM 84.2 °F 92.3 °F 75.2 °F 74% 29.86 in 5.6 mi NE 3.5 mph - N/A   Unknown
8:30 AM 84.2 °F 90.9 °F 73.4 °F 70% 29.89 in 6.2 mi NNE 6.9 mph - N/A   Scattered Clouds
9:00 AM 86.0 °F 93.4 °F 73.4 °F 66% 29.89 in 6.2 mi NE 6.9 mph - N/A   Scattered Clouds
9:30 AM 87.8 °F 95.6 °F 73.4 °F 62% 29.89 in 6.2 mi ENE 3.5 mph - N/A   Scattered Clouds
10:00 AM 87.8 °F 95.6 °F 73.4 °F 62% 29.89 in 6.2 mi East 4.6 mph - N/A   Scattered Clouds
10:30 AM 87.8 °F 93.8 °F 71.6 °F 58% 29.89 in 6.2 mi NNE 3.5 mph - N/A   Scattered Clouds
11:00 AM 89.6 °F 98.2 °F 73.4 °F 59% 29.86 in 6.2 mi NNE 4.6 mph - N/A   Scattered Clouds
11:30 AM 89.6 °F 96.2 °F 71.6 °F 55% 29.86 in 6.2 mi NNE 3.5 mph - N/A   Scattered Clouds
12:00 PM 89.6 °F 96.2 °F 71.6 °F 55% 29.86 in 6.2 mi NNE 3.5 mph - N/A   Scattered Clouds
12:30 PM 89.6 °F 96.2 °F 71.6 °F 55% 29.83 in 6.2 mi NE 2.3 mph - N/A   Scattered Clouds
1:00 PM 90 °F - 72 °F 47% 29.83 in 6 mi ENE 6.9 mph - -   Scattered Clouds
1:00 PM 89.6 °F 96.2 °F 71.6 °F 55% 29.83 in 6.2 mi ENE 6.9 mph - N/A   Scattered Clouds
1:30 PM 89.6 °F 96.2 °F 71.6 °F 55% 29.83 in 6.2 mi NE 10.4 mph - N/A   Scattered Clouds
2:00 PM 89.6 °F 96.2 °F 71.6 °F 55% 29.80 in 6.2 mi NNE 6.9 mph - N/A   Scattered Clouds
2:30 PM 89.6 °F 98.2 °F 73.4 °F 59% 29.80 in 6.2 mi NE 6.9 mph - N/A   Scattered Clouds
3:00 PM 91.4 °F 100.1 °F 73.4 °F 55% 29.80 in 6.2 mi North 3.5 mph - N/A   Scattered Clouds
3:30 PM 89.6 °F 96.2 °F 71.6 °F 55% 29.80 in 6.2 mi NNE 8.1 mph - N/A   Scattered Clouds
4:00 PM 89.6 °F 96.2 °F 71.6 °F 55% 29.77 in 6.2 mi NNE 8.1 mph - N/A   Scattered Clouds
4:30 PM 87.8 °F 95.6 °F 73.4 °F 62% 29.77 in 6.2 mi NNW 9.2 mph - N/A   Scattered Clouds
5:00 PM 87.8 °F 95.6 °F 73.4 °F 62% 29.80 in 6.2 mi NW 6.9 mph - N/A   Scattered Clouds
5:30 PM 87.8 °F 93.8 °F 71.6 °F 58% 29.77 in 6.2 mi NNW 6.9 mph - N/A   Scattered Clouds
6:00 PM 87.8 °F 95.6 °F 73.4 °F 62% 29.77 in 6.2 mi NNW 4.6 mph - N/A   Scattered Clouds
6:30 PM 86.0 °F 93.4 °F 73.4 °F 66% 29.80 in 6.2 mi North 4.6 mph - N/A   Scattered Clouds
7:00 PM 87 °F - 73 °F 54% 29.79 in 6 mi North 4.6 mph - -   Scattered Clouds
7:00 PM 86.0 °F 93.4 °F 73.4 °F 66% 29.80 in 6.2 mi North 4.6 mph - N/A   Mostly Cloudy
7:30 PM 86.0 °F 93.4 °F 73.4 °F 66% 29.80 in 6.2 mi WNW 3.5 mph - N/A   Mostly Cloudy
8:00 PM 86.0 °F 95.1 °F 75.2 °F 70% 29.83 in 6.2 mi NNW 5.8 mph - N/A   Mostly Cloudy
8:30 PM 86.0 °F 95.1 °F 75.2 °F 70% 29.83 in 6.2 mi North 3.5 mph - N/A   Mostly Cloudy
9:00 PM 86.0 °F 95.1 °F 75.2 °F 70% 29.83 in 6.2 mi North 3.5 mph - N/A   Mostly Cloudy
9:30 PM 84.2 °F 92.3 °F 75.2 °F 74% 29.86 in 6.2 mi NNE 6.9 mph - N/A   Mostly Cloudy
10:00 PM 84.2 °F 92.3 °F 75.2 °F 74% 29.86 in 6.2 mi NE 3.5 mph - N/A   Mostly Cloudy
10:30 PM 84.2 °F 92.3 °F 75.2 °F 74% 29.86 in 6.2 mi ENE 4.6 mph - N/A   Mostly Cloudy
11:00 PM 84.2 °F 92.3 °F 75.2 °F 74% 29.86 in 6.2 mi ENE 3.5 mph - N/A   Mostly Cloudy
11:30 PM 84.2 °F 92.3 °F 75.2 °F 74% 29.86 in 6.2 mi NE 4.6 mph - N/A   Mostly Cloudy